Flag for Canada Weather past 2 weeks in Sault Ste. Marie, Ontario, Canada

46 °F

Mostly cloudy.

Feels Like: 42 °F
Forecast: 37 / 44 °F
Wind: 9 mph from Southeast

Location: Sault Ste Marie

Current Time: Nov 25, 2015 at 7:52:26 PM

Latest Report: Nov 25, 2015 at 7:00 PM

Visibility: 15 mi

Pressure: 30.12 "Hg

Humidity: 62%

Dew point: 34 °F

Location of Sault Ste. MarieLocation

Historic Weather in Sault Ste. Marie — Graph


Sault Ste. Marie temperature yesterday

Maximum temperature yesterday: 37 °F (at 6:00 AM)
Minimum temperature yesterday: 28 °F (at 6:00 PM)
Average temperature yesterday: 34 °F

Past Weeks' High & Low Weather Summary

High55 °F (Nov 18, 7:00 PM)100% (Nov 10, 9:00 PM)30.38 "Hg (Nov 10, 9:00 PM)
Low9 °F (Nov 22, 10:00 PM)45% (Nov 20, 1:00 PM)29.16 "Hg (Nov 12, 1:00 PM)
Average37 °F79%29.94 "Hg
* Reported Nov 10 6:00 PM — Nov 25 6:00 PM, Sault Ste. Marie, Weather by CustomWeather, © 2015

Note: Actual official high and low records may vary slightly from our data, if they occured in-between our weather recording intervals... More about our weather records


Sault Ste. Marie weather history for previous 24 hours

Time TempWeatherWind HumidityBarometerVisibility
6:00 PM
Wed, Nov 25
45 °FMostly cloudy.7 mph66%30.13 "Hg15 mi
5:00 PM45 °FOvercast.10 mph66%30.13 "Hg15 mi
4:00 PM45 °FCloudy.7 mph66%30.15 "Hg15 mi
3:00 PM45 °FMostly cloudy.8 mph66%30.16 "Hg15 mi
2:00 PM45 °FCloudy.12 mph61%30.17 "Hg15 mi
1:00 PM43 °FMostly cloudy.8 mph71%30.19 "Hg15 mi
12:00 PM41 °FMostly cloudy.9 mph70%30.21 "Hg15 mi
11:00 AM41 °FMostly cloudy.7 mph70%30.25 "Hg15 mi
10:00 AM39 °FPartly sunny.9 mph75%30.27 "Hg15 mi
9:00 AM37 °FBroken clouds.9 mph75%30.28 "Hg15 mi
8:00 AM36 °FPartly sunny.10 mph81%30.30 "Hg15 mi
7:00 AM36 °FPassing clouds.9 mph81%30.32 "Hg15 mi
6:00 AM34 °FPartly cloudy.9 mph81%30.34 "Hg15 mi
5:00 AM32 °FPassing clouds.5 mph87%30.35 "Hg15 mi
4:00 AM34 °FPassing clouds.5 mph81%30.36 "Hg15 mi
3:00 AM34 °FPassing clouds.6 mph81%30.37 "Hg15 mi
2:00 AM34 °FMostly cloudy.3 mph81%30.38 "Hg15 mi
1:00 AM34 °FMostly cloudy.6 mph81%30.37 "Hg15 mi
12:00 AM34 °FMostly cloudy.5 mph75%30.38 "Hg15 mi
11:00 PM
Tue, Nov 24
34 °FOvercast.5 mph75%30.37 "Hg15 mi
10:00 PM32 °FOvercast.3 mph80%30.37 "Hg15 mi
9:00 PM32 °FOvercast.3 mph87%30.37 "Hg15 mi
8:00 PM30 °FOvercast.No wind93%30.38 "Hg15 mi
7:00 PM30 °FPassing clouds.5 mph86%30.37 "Hg15 mi
Weather by CustomWeather, © 2015

See weather overviewHow to use our weather pages